Weather History for Augusta, ME

Change the Weather History Date:

Tuesday, January 7, 2014

  Actual Average Record
Temperature  
Mean Temperature 16 °F -  
Max Temperature 26 °F 26 °F 45 °F (2007)
Min Temperature 3 °F 12 °F 3 °F (2004)
Degree Days  
Heating Degree Days 50    
Moisture  
Dew Point -3 °F    
Average Humidity 47    
Maximum Humidity 68    
Minimum Humidity 32    
Precipitation  
Precipitation 0.00 in - - ()
Sea Level Pressure  
Sea Level Pressure 29.71 in    
Wind  
Wind Speed 13 mph (West)    
Max Wind Speed 20 mph    
Max Gust Speed 38 mph    
Visibility 10 miles    
Events Snow    
Averages and records for this station are not official NWS values.
T = Trace of Precipitation, MM = Missing Value Source: NWS Daily Summary

Daily Weather History Graph

Daily Weather History Graph

Search for Another Location

Airport:

Trip Planner

Search our weather history database for the weather conditions in past years. The results will help you decide how hot, cold, wet, or windy it might be!

Date:

Astronomy

Jan. 07, 2014 Rise Set
Actual Time 7:14 AM EST 4:16 PM EST
Civil Twilight 6:41 AM EST 4:49 PM EST
Nautical Twilight 6:05 AM EST 5:25 PM EST
Astronomical Twilight 5:30 AM EST 6:00 PM EST
Moon 10:44 AM EST (1/7) No Moon Set
Length of Visible Light 10h 07m
Length of Day
9h 02m
Waxing Crescent, 45% of the Moon is Illuminated
Jan 7
Waxing Crescent
Jan 7
First Quarter
Jan 15
Full
Jan 24
Last Quarter
Jan 30
New

Hourly Weather History & Observations

Time (EST) Temp. Windchill Dew Point Humidity Pressure Visibility Wind Dir Wind Speed Gust Speed Precip Events Conditions
12:53 AM 26.1 °F 15.0 °F 12.0 °F 55% 29.36 in 10.0 mi WNW 12.7 mph 25.3 mph N/A   Clear
1:53 AM 24.1 °F 13.1 °F 10.0 °F 55% 29.40 in 10.0 mi WNW 11.5 mph 18.4 mph N/A   Clear
2:53 AM 24.1 °F 13.7 °F 10.0 °F 55% 29.42 in 10.0 mi West 10.4 mph 18.4 mph N/A   Overcast
3:53 AM 23.0 °F 14.7 °F 9.0 °F 55% 29.45 in 10.0 mi WNW 6.9 mph - N/A   Overcast
4:53 AM 21.9 °F 11.7 °F 10.9 °F 63% 29.47 in 10.0 mi WNW 9.2 mph - 0.00 in   Overcast
5:28 AM 19.9 °F 5.2 °F 10.9 °F 68% 29.47 in 3.0 mi WNW 17.3 mph 25.3 mph 0.00 in Snow Light Snow
5:53 AM 19.0 °F 5.0 °F 3.0 °F 50% 29.50 in 9.0 mi WNW 15.0 mph 26.5 mph 0.00 in   Overcast
6:53 AM 17.1 °F 3.0 °F -0.9 °F 45% 29.54 in 10.0 mi WNW 13.8 mph 31.1 mph N/A   Overcast
7:53 AM 14.0 °F 0.5 °F -0.0 °F 54% 29.60 in 10.0 mi West 11.5 mph 23.0 mph N/A   Scattered Clouds
8:53 AM 14.0 °F -3.0 °F -8.0 °F 37% 29.65 in 10.0 mi WNW 18.4 mph 34.5 mph N/A   Clear
9:53 AM 14.0 °F -2.5 °F -9.0 °F 35% 29.69 in 10.0 mi WNW 17.3 mph 31.1 mph N/A   Partly Cloudy
10:53 AM 12.9 °F -4.9 °F -11.9 °F 32% 29.71 in 10.0 mi WNW 19.6 mph 38.0 mph N/A   Mostly Cloudy
11:53 AM 12.0 °F -5.6 °F -7.1 °F 42% 29.72 in 10.0 mi West 18.4 mph 35.7 mph N/A   Overcast
12:53 PM 12.0 °F -3.4 °F -8.0 °F 41% 29.73 in 10.0 mi West 13.8 mph 29.9 mph N/A   Overcast
1:53 PM 12.9 °F -0.2 °F -9.0 °F 37% 29.76 in 10.0 mi West 10.4 mph 26.5 mph N/A   Overcast
2:53 PM 12.0 °F -6.0 °F -8.0 °F 41% 29.80 in 10.0 mi West 19.6 mph 31.1 mph N/A   Overcast
3:53 PM 10.9 °F -1.8 °F -6.0 °F 47% 29.83 in 10.0 mi West 9.2 mph - N/A   Mostly Cloudy
4:53 PM 10.9 °F -2.6 °F -8.0 °F 42% 29.85 in 10.0 mi WSW 10.4 mph 21.9 mph N/A   Mostly Cloudy
5:53 PM 10.0 °F -5.9 °F -11.9 °F 37% 29.90 in 10.0 mi West 13.8 mph 23.0 mph N/A   Scattered Clouds
6:53 PM 8.1 °F -4.3 °F -11.0 °F 42% 29.92 in 10.0 mi SW 8.1 mph - N/A   Clear
7:53 PM 7.0 °F -7.5 °F -9.9 °F 46% 29.96 in 10.0 mi SSW 10.4 mph 19.6 mph N/A   Clear
8:53 PM 6.1 °F -7.8 °F -9.0 °F 50% 29.98 in 10.0 mi SSW 9.2 mph 20.7 mph N/A   Clear
9:53 PM 5.0 °F -9.1 °F -9.9 °F 50% 30.00 in 10.0 mi SW 9.2 mph - N/A   Clear
10:53 PM 5.0 °F -13.6 °F -11.0 °F 48% 30.00 in 10.0 mi SW 16.1 mph 24.2 mph N/A   Clear
11:53 PM 3.9 °F -12.2 °F -11.0 °F 50% 30.02 in 10.0 mi SW 11.5 mph - N/A   Clear